"Pseudo-MPEC" for C2YNJP2

Created 2020 Aug 6 7:07:04 UT using Find_Orb

Click here for an explanation of pseudo-MPECs

 
 Astrometry: 
     C2YNJP2  C2020 07 31.17171 15 30 27.90 +20 25 25.5    ~7V4q 19.2 GVNEOCPG96
     C2YNJP2  C2020 07 31.17694 15 30 31.58 +20 23 18.9    ~7V4q 19.3 GVNEOCPG96
     C2YNJP2  C2020 07 31.18217 15 30 35.38 +20 21 09.3    ~7V4q       VNEOCPG96
     C2YNJP2  C2020 07 31.22818 15 31 11.81 +20 01 24.3    ~7V67 19.0 GVNEOCPI52
     C2YNJP2  C2020 07 31.22969 15 31 13.12 +20 00 44.1    ~7V67 18.5 GVNEOCPI52
     C2YNJP2  C2020 07 31.23120 15 31 13.90 +20 00 19.8    ~7V67 18.7 GVNEOCPI52
     C2YNJP2  C2020 07 31.23271 15 31 15.77 +19 59 23.2    ~7V67 18.9 GVNEOCPI52

Station data:
(G96) Mt. Lemmon Survey  (N32.442754 W110.788720)  US/Arizona.  Observers T.
   A. Pruyne, B. M. Africano, E. J. Christensen, G. A. Farneth, D. C. Fuls,
   A. R. Gibbs, A. D. Grauer, H. Gröller, J. A. Johnson, R. A. Kowalski, S.
   M. Larson, G. J. Leonard, D. Rankin, R. L. Seaman, F. C. Shelly. 1.5-m
   reflector + 10K CCD.
(I52) Steward Observatory, Mt. Lemmon Station  (N32.442547 W110.788920)
   US/Arizona.  Observers T. A. Pruyne, B. M. Africano, E. J. Christensen, G.
   A. Farneth, D. C. Fuls, A. R. Gibbs, A. D. Grauer, H. Gröller, J. A.
   Johnson, R. A. Kowalski, S. M. Larson, G. J. Leonard, D. Rankin, R. L.
   Seaman, F. C. Shelly. 1.0-m reflector + CCD.

Orbital elements:  C2YNJP2
   Perigee 2020 Aug 2.135983 TT =  3:15:49 (JD 2459063.635983)
Epoch 2020 Jul 31.0 TT = JDT 2459061.5                        AutoNEOCP
q213049.582km                       (J2000 equator)
H   27.7  G 0.15   Peri.  232.79346
                   Node    68.24252
e  11.1473053      Incl.   54.61236
From 7 observations 2020 July 31 (87.8 min); mean residual 4".13
Residuals in arcseconds: 
200731 G96  .44-  .72-    200731 I52  2.0+  3.9-    200731 I52  1.9+  4.4-    
200731 G96  .20-  .64+    200731 I52  1.9+  4.0-    
200731 G96  .76+  .08+    200731 I52  5.7- 11.9+    

Ephemerides (geocentric):
Date (UTC) HH   RA              Dec         delta   r     elong  mag
---- -- -- --  -------------   -----------  ------ ------ -----  ---
2020 08 06 07  02 47 58.442   -31 47 11.39  .01081 1.0166 102.4 20.6
2020 08 06 08  02 48 13.667   -31 43 43.13  .01092 1.0166 102.3 20.6
2020 08 06 09  02 48 28.582   -31 40 18.76  .01102 1.0166 102.3 20.6
2020 08 06 10  02 48 43.196   -31 36 58.15  .01113 1.0166 102.3 20.6
2020 08 06 11  02 48 57.518   -31 33 41.21  .01123 1.0166 102.2 20.7
2020 08 06 12  02 49 11.557   -31 30 27.84  .01134 1.0167 102.2 20.7
2020 08 06 13  02 49 25.320   -31 27 17.95  .01144 1.0167 102.2 20.7
2020 08 06 14  02 49 38.816   -31 24 11.44  .01155 1.0167 102.1 20.7
2020 08 06 15  02 49 52.053   -31 21 08.23  .01165 1.0167 102.1 20.7
2020 08 06 16  02 50 05.037   -31 18 08.22  .01176 1.0167 102.1 20.8
2020 08 06 17  02 50 17.775   -31 15 11.35  .01186 1.0167 102.0 20.8
2020 08 06 18  02 50 30.276   -31 12 17.52  .01197 1.0167 102.0 20.8
2020 08 06 19  02 50 42.544   -31 09 26.66  .01207 1.0167 102.0 20.8
2020 08 06 20  02 50 54.587   -31 06 38.70  .01218 1.0167 102.0 20.8
2020 08 06 21  02 51 06.410   -31 03 53.56  .01228 1.0168 102.0 20.9
2020 08 06 22  02 51 18.020   -31 01 11.18  .01239 1.0168 101.9 20.9
2020 08 06 23  02 51 29.421   -30 58 31.48  .01249 1.0168 101.9 20.9
2020 08 07 00  02 51 40.620   -30 55 54.41  .01260 1.0168 101.9 20.9
2020 08 07 01  02 51 51.622   -30 53 19.90  .01270 1.0168 101.9 20.9
2020 08 07 02  02 52 02.431   -30 50 47.88  .01281 1.0168 101.8 21.0
2020 08 07 03  02 52 13.053   -30 48 18.31  .01291 1.0168 101.8 21.0
2020 08 07 04  02 52 23.492   -30 45 51.11  .01302 1.0168 101.8 21.0
2020 08 07 05  02 52 33.754   -30 43 26.24  .01312 1.0169 101.8 21.0
2020 08 07 06  02 52 43.841   -30 41 03.64  .01323 1.0169 101.8 21.0
2020 08 07 07  02 52 53.760   -30 38 43.27  .01333 1.0169 101.8 21.0
2020 08 07 08  02 53 03.513   -30 36 25.06  .01344 1.0169 101.7 21.1
2020 08 07 09  02 53 13.105   -30 34 08.98  .01354 1.0169 101.7 21.1
2020 08 07 10  02 53 22.539   -30 31 54.96  .01365 1.0169 101.7 21.1
2020 08 07 11  02 53 31.820   -30 29 42.98  .01375 1.0169 101.7 21.1
2020 08 07 12  02 53 40.951   -30 27 32.97  .01385 1.0170 101.7 21.1
2020 08 07 13  02 53 49.936   -30 25 24.91  .01396 1.0170 101.7 21.1
2020 08 07 14  02 53 58.777   -30 23 18.74  .01406 1.0170 101.7 21.2
2020 08 07 15  02 54 07.479   -30 21 14.42  .01417 1.0170 101.7 21.2
2020 08 07 16  02 54 16.044   -30 19 11.93  .01427 1.0170 101.7 21.2
2020 08 07 17  02 54 24.476   -30 17 11.21  .01438 1.0170 101.6 21.2
2020 08 07 18  02 54 32.777   -30 15 12.22  .01448 1.0170 101.6 21.2
2020 08 07 19  02 54 40.950   -30 13 14.94  .01459 1.0170 101.6 21.2
2020 08 07 20  02 54 48.999   -30 11 19.33  .01469 1.0171 101.6 21.3
2020 08 07 21  02 54 56.925   -30 09 25.35  .01480 1.0171 101.6 21.3
2020 08 07 22  02 55 04.733   -30 07 32.97  .01490 1.0171 101.6 21.3
2020 08 07 23  02 55 12.423   -30 05 42.16  .01501 1.0171 101.6 21.3
2020 08 08 00  02 55 19.999   -30 03 52.88  .01511 1.0171 101.6 21.3
2020 08 08 01  02 55 27.464   -30 02 05.10  .01522 1.0171 101.6 21.3
2020 08 08 02  02 55 34.818   -30 00 18.80  .01532 1.0172 101.6 21.4
2020 08 08 03  02 55 42.066   -29 58 33.94  .01543 1.0172 101.6 21.4
2020 08 08 04  02 55 49.208   -29 56 50.50  .01553 1.0172 101.6 21.4
2020 08 08 05  02 55 56.248   -29 55 08.45  .01564 1.0172 101.6 21.4
2020 08 08 06  02 56 03.187   -29 53 27.75  .01574 1.0172 101.6 21.4